Skip Page Navigation
NASA JPL Caltech
NASA Logo - Jet Propulsion Laboratory + View the NASA Portal
+ Near-Earth Object (NEO) Program
Search JPL
JPL Home Earth Solar System Stars & Galaxies Technology
JPL Solar System Dynamics
BODIES ORBITS EPHEMERIDES TOOLS PHYSICAL DATA DISCOVERY FAQ SITE MAP
JPL Small-Body Database Browser
Search: [ help ]  
79271 Bellagio (1995 SJ5)
Classification: Main-belt Asteroid          SPK-ID: 2079271
Ephemeris | Orbit Diagram | Orbital Elements | Physical Parameters | Discovery Circumstances | Close-Approach Data ]

[ show orbit diagram ]
Orbital Elements at Epoch 2457000.5 (2014-Dec-09.0) TDB
Reference: JPL 9 (heliocentric ecliptic J2000)
 Element Value Uncertainty (1-sigma)   Units 
e .1946824050675727 8.3209e-08  
a 2.23086544376726 1.9984e-08 AU
q 1.796555193792512 1.8868e-07 AU
i 5.070604533938696 9.7072e-06 deg
node 335.477423519015 8.3558e-05 deg
peri 332.487074202045 9.1253e-05 deg
M 317.0355402420989 4.7298e-05 deg
tp 2457145.749734029982
(2015-May-03.24973403)
0.00016114 JED
period 1217.050197894725
3.33
1.6354e-05
4.477e-08
d
yr
n .295797166479028 3.9747e-09 deg/d
Q 2.665175693742008 2.3875e-08 AU
  Orbit Determination Parameters
   # obs. used (total)      314  
   data-arc span      7385 days (20.22 yr)  
   first obs. used      1994-03-07  
   last obs. used      2014-05-26  
   planetary ephem.      DE431  
   SB-pert. ephem.      SB431-BIG16  
   condition code      0  
   fit RMS      .57256  
   data source      ORB  
   producer      Otto Matic  
   solution date      2014-Jun-16 15:44:38  

Additional Information
 Earth MOID = .784825 AU 
 T_jup = 3.612 
[ show covariance matrix ]

Ephemeris | Orbit Diagram | Orbital Elements | Physical Parameters | Discovery Circumstances | Close-Approach Data ]

Physical Parameter Table
Parameter Symbol Value Units Sigma Reference Notes
absolute magnitude H 16.0 mag n/a MPO296681  

79271 Bellagio           Discovered 1995 Sept. 28 by V. Giuliani and G. Ventre at Sormano.
Bellagio is a world-famous tourist destination situated on the Lake Como a few kilometers north of the Sormano Astronomical Observatory.
NOTE: some special characters may not display properly (any characters within {} are an attempt to place the proper accent above a character)
Reference: 20050523/MPCPages.arcLast Updated: 2005-07-21

[ show close-approach data ]
Alternate Designations
 1995 SJ5 = 2001 KX52 
Ephemeris | Orbit Diagram | Orbital Elements | Physical Parameters | Discovery Circumstances | Close-Approach Data ]
ABOUT SSD CREDITS/AWARDS PRIVACY/COPYRIGHT GLOSSARY LINKS
FirstGov 2014-Oct-23 04:32 UT
(server date/time)  
NASA Home Page
Site Manager:   Donald K. Yeomans
Webmaster  Alan B. Chamberlin